Preview of NWS' New Version of Forecast
This preview is not operational and should not be used for support decisions.

Regional Weather Roundup (RWR)

Issued by Philadelphia/Mt Holly (PHI)

                            
000
ASUS41 KPHI 172012
RWRPHI

REGIONAL WEATHER ROUNDUP
NATIONAL WEATHER SERVICE MOUNT HOLLY NJ
300 PM EST THU JAN 17 2019

NOTE:  "FAIR" INDICATES FEW OR NO CLOUDS BELOW 12,000 FEET WITH NO
SIGNIFICANT WEATHER AND/OR OBSTRUCTIONS TO VISIBILITY.

 * = STATION DOES NOT REPORT PRECIPITATION (E.G. RAIN, SNOW, ETC.) 
        OR FOG.

NJZ015>026-172100-
SOUTHERN NEW JERSEY
  
CITY           SKY/WX    TMP DP  RH WIND       PRES   REMARKS
POMONA         FAIR      32  22  66 E9        30.31F WCI  24          
WILDWOOD*      FAIR      35  20  54 E8        30.32F WCI  29          
MILLVILLE      FAIR      34  12  40 SE7       30.30F WCI  28          
WRIGHTSTOWN    PTSUNNY   33   8  35 E8        30.27F WCI  26          
MOUNT HOLLY    FAIR      33   7  33 CALM      30.30F                  
TRENTON        FAIR      32   8  36 E7        30.29F WCI  26          

$$
NJZ001>014-172100-
NORTHERN NEW JERSEY
  
CITY           SKY/WX    TMP DP  RH WIND       PRES   REMARKS
SUSSEX         FAIR      30   8  39 NE3       30.28F                  
ANDOVER*         N/A     31   1  28 CALM      30.27F                  
MORRISTOWN     PTSUNNY   30  10  43 CALM      30.32F                  
NEWARK         CLOUDY    31   9  39 CALM      30.33F                  
TETERBORO      FAIR      31   1  28 CALM      30.33F                  
CALDWELL       FAIR      30   3  31 E5        30.32F WCI  25          
SOMERVILLE     FAIR      32   6  33 SE7       30.29F WCI  26          
ALLAIRE*       FAIR      29  18  63 E9        30.33F WCI  20          
TOMS RIVER*    FAIR      31  19  61 VRB6      30.33F WCI  25          

$$
PAZ043-044-047-054-055-060>062-066>071-172100-
EASTERN PENNSYLVANIA
  
CITY           SKY/WX    TMP DP  RH WIND       PRES   REMARKS
PHILADELPHIA   CLOUDY    34   7  32 VRB3      30.31F                  
NORTH PHILA    FAIR      33   7  33 E6        30.31F WCI  28          
BLUE BELL*     FAIR      30   5  34 SE5       30.30F WCI  25          
DOYLESTOWN     FAIR      30   2  30 CALM      30.26F                  
QUAKERTOWN*    PTSUNNY   30   3  31 E5        30.27  WCI  25          
PERKASIE*      FAIR      28   1  31 E6        30.26F WCI  22          
POTTSTOWN      PTSUNNY   29   5  36 CALM      30.30F                  
LANCASTER      CLOUDY    32  17  54 E7        30.27F WCI  26          
COATESVILLE    FAIR      30  16  55 VRB5G12   30.27F WCI  25          
READING        FAIR      31  11  43 CALM      30.27F                  
ALLENTOWN      FAIR      32   5  32 E8        30.27F WCI  25          
MOUNT POCONO   PTSUNNY   24   0  35 SE7       30.17F WCI  16          
HAZLETON       CLOUDY   N/A N/A N/A SE3       30.21F                  
LEHIGHTON      CLOUDY    32   3  29 SE5       30.27F WCI  27          
WILKES BARRE   FAIR      29   5  36 CALM      30.21F                  

$$
DEZALL-MDZ008-012-015-019-020-172100-
DELAWARE AND EASTERN MARYLAND
  
CITY           SKY/WX    TMP DP  RH WIND       PRES   REMARKS
WILMINGTON     FAIR      32  15  49 E8        30.31F WCI  25          
GEORGETOWN     FAIR      38  25  59 E8        30.31F WCI  32          
EASTON         MOSUNNY   37  25  60 E9        30.31F WCI  31          
ABERDEEN       CLOUDY    32  21  64 SE8       30.31F WCI  25          
PATUXENT       PTSUNNY   39  30  70 SE9       30.27  WCI  33          
OCEAN CITY     FAIR      39  28  64 E7        30.31F WCI  34          
WALLOPS ISLAND PTSUNNY   41  28  60 NE9       30.29F                  
CAMBRIDGE      SUNNY     37  25  60 E8        30.28F WCI  31          
SALISBURY      FAIR      39  28  64 E8        30.28F WCI  33          

$$
PAZ001-021-NYZ056-072-MDZ011-DCZ001-172100-
OTHER NEARBY LOCATIONS
  
CITY           SKY/WX    TMP DP  RH WIND       PRES   REMARKS
HARRISBURG     CLOUDY    31  17  56 SE9       30.25F WCI  23          
WILLIAMSPORT   FAIR      31  11  43 E7        30.23F WCI  24          
BINGHAMTON     FAIR      21   6  52 SE7       30.16F WCI  12          
NEW YORK CITY  FAIR      31   7  36 MISG      30.34F                  
BALTIMORE      CLOUDY    34  22  61 SE7       30.27F WCI  28          
WASHINGTON DC  CLOUDY    37  23  56 E7        30.28F WCI  32          

$$